TimePDT,TemperatureF,Dew PointF,Humidity,Sea Level PressureIn,VisibilityMPH,Wind Direction,Wind SpeedMPH,Gust SpeedMPH,PrecipitationIn,Events,Conditions,WindDirDegrees,DateUTC
12:53 AM,64.9,63.0,93,29.91,9.0,North,3.5,-,N/A,,Overcast,350,2013-06-25 07:53:00
1:53 AM,64.9,63.0,93,29.90,8.0,NW,4.6,-,N/A,,Mostly Cloudy,310,2013-06-25 08:53:00
2:53 AM,64.9,63.0,93,29.89,9.0,Calm,Calm,-,N/A,,Overcast,0,2013-06-25 09:53:00
3:53 AM,64.9,63.0,93,29.89,7.0,Calm,Calm,-,N/A,,Overcast,0,2013-06-25 10:53:00
4:53 AM,64.9,63.0,93,29.90,7.0,Calm,Calm,-,N/A,,Overcast,0,2013-06-25 11:53:00
5:53 AM,64.9,64.0,97,29.91,6.0,ESE,6.9,-,N/A,,Mostly Cloudy,110,2013-06-25 12:53:00
6:53 AM,66.0,64.0,93,29.92,4.0,ESE,4.6,-,0.00,Rain,Light Rain,110,2013-06-25 13:53:00
7:53 AM,66.9,64.0,90,29.94,6.0,ESE,6.9,-,0.00,,Overcast,110,2013-06-25 14:53:00
8:53 AM,69.1,63.0,81,29.94,10.0,ESE,9.2,-,0.00,Rain,Light Rain,120,2013-06-25 15:53:00
9:53 AM,73.0,60.1,64,29.94,10.0,SSE,5.8,-,0.00,,Mostly Cloudy,150,2013-06-25 16:53:00
10:53 AM,77.0,57.9,52,29.95,10.0,South,11.5,-,N/A,,Mostly Cloudy,180,2013-06-25 17:53:00
11:53 AM,79.0,57.0,47,29.96,10.0,South,11.5,17.3,N/A,,Mostly Cloudy,180,2013-06-25 18:53:00
12:53 PM,82.0,55.9,41,29.95,10.0,South,10.4,-,N/A,,Scattered Clouds,190,2013-06-25 19:53:00
1:53 PM,86.0,59.0,40,29.94,10.0,Variable,6.9,-,N/A,,Overcast,0,2013-06-25 20:53:00
2:53 PM,84.9,57.9,40,29.93,10.0,SSE,8.1,-,N/A,,Partly Cloudy,150,2013-06-25 21:53:00
3:35 PM,86.0,60.8,43,29.92,10.0,Variable,5.8,-,N/A,,Mostly Cloudy,0,2013-06-25 22:35:00
3:53 PM,88.0,61.0,40,29.92,10.0,West,8.1,-,N/A,,Scattered Clouds,280,2013-06-25 22:53:00
4:53 PM,87.1,63.0,44,29.91,10.0,North,9.2,-,N/A,,Partly Cloudy,350,2013-06-25 23:53:00
5:53 PM,84.9,64.0,49,29.90,10.0,NNW,10.4,-,N/A,,Clear,330,2013-06-26 00:53:00
6:53 PM,82.9,63.0,51,29.90,10.0,NNW,10.4,-,N/A,,Clear,340,2013-06-26 01:53:00
7:53 PM,81.0,63.0,54,29.91,10.0,NNW,12.7,-,N/A,,Clear,330,2013-06-26 02:53:00
8:53 PM,78.1,64.0,62,29.91,10.0,NNW,11.5,-,N/A,,Clear,340,2013-06-26 03:53:00
9:53 PM,73.9,64.9,73,29.93,10.0,NNW,13.8,-,N/A,,Clear,330,2013-06-26 04:53:00
10:53 PM,71.1,64.0,78,29.95,10.0,NNW,13.8,-,N/A,,Clear,330,2013-06-26 05:53:00
11:53 PM,69.1,63.0,81,29.96,10.0,NNW,9.2,-,N/A,,Clear,330,2013-06-26 06:53:00